Location: Quedlinburg
(51.7921°N, 11.1414°E)
Time: 00:35:12
(UTC+01:00)

CAS-6 - Visible Passes

Search period start: 14 March 2026 00:00
Search period end: 24 March 2026 00:00
Orbit: 599 x 620 km, 97.8° (Epoch: 13 March)

Date Brightness Start Highest point End Pass type
(mag) Time Alt. Az. Time Alt. Az. Time Alt. Az.
14 Mar ? 20:31:30 15° NE 20:31:30 15° NE 20:32:59 10° NNE visible
14 Mar ? 22:08:26 23° NNW 22:08:26 23° NNW 22:10:04 10° NNW visible
15 Mar ? 20:45:30 18° NE 20:45:30 18° NE 20:47:20 10° NNE visible
15 Mar ? 22:22:26 21° NNW 22:22:26 21° NNW 22:23:59 10° NNW visible
16 Mar ? 20:59:30 21° NNE 20:59:30 21° NNE 21:01:35 10° N visible
16 Mar ? 22:36:26 20° NW 22:36:26 20° NW 22:37:52 10° NNW visible
17 Mar ? 21:13:30 25° NNE 21:13:30 25° NNE 21:15:45 10° N visible
17 Mar ? 22:50:26 17° NW 22:50:26 17° NW 22:51:39 10° NNW visible
18 Mar ? 21:27:31 29° NNE 21:27:31 29° NNE 21:29:51 10° N visible
18 Mar ? 23:04:26 14° NW 23:04:26 14° NW 23:05:21 10° NW visible
19 Mar ? 21:41:30 32° N 21:41:30 32° N 21:43:54 10° N visible
19 Mar ? 23:18:26 12° NW 23:18:26 12° NW 23:18:56 10° NW visible
20 Mar ? 20:18:33 13° NE 20:18:33 13° NE 20:20:19 10° NNE visible
20 Mar ? 21:55:30 33° N 21:55:30 33° N 21:57:54 10° NNW visible
21 Mar ? 20:32:33 16° NE 20:32:33 16° NE 20:34:51 10° NNE visible
21 Mar ? 22:09:29 32° NNW 22:09:29 32° NNW 22:11:52 10° NNW visible
22 Mar ? 20:46:33 20° NE 20:46:33 20° NE 20:49:11 10° NNE visible
22 Mar ? 22:23:28 30° NW 22:23:28 30° NW 22:25:46 10° NNW visible
23 Mar ? 21:00:32 25° NE 21:00:32 25° NE 21:03:24 10° N visible
23 Mar ? 22:37:28 26° NW 22:37:28 26° NW 22:39:37 10° NNW visible
